Weather History for Jonesboro, AR

Change the Weather History Date:

Saturday, October 6, 2012

  Actual Average Record
Temperature  
Mean Temperature 50 °F 64 °F  
Max Temperature 57 °F 76 °F 94 °F (1956)
Min Temperature 42 °F 53 °F 35 °F (1932)
Degree Days  
Heating Degree Days 15 3  
Month to date heating degree days 19 17  
Since 1 July heating degree days 25 35  
Cooling Degree Days 0 3  
Month to date cooling degree days 5 19  
Year to date cooling degree days 2310 1790  
Moisture  
Dew Point 39 °F    
Average Humidity 68    
Maximum Humidity 93    
Minimum Humidity 43    
Precipitation  
Precipitation 0.06 in 0.13 in 2.89 in (1949)
Month to date precipitation 0.93 0.86  
Year to date precipitation 25.89 35.03  
Snow  
Snow 0.00 in - 0.00 in (2002)
Month to date snowfall 0.0  
Since 1 July snowfall 0.0  
Since 1 September snowfall 0.0  
Snow Depth 0.00 in    
Sea Level Pressure  
Sea Level Pressure 30.21 in    
Wind  
Wind Speed 6 mph (North)    
Max Wind Speed 21 mph    
Max Gust Speed 25 mph    
Visibility 10 miles    
Events Rain    
T = Trace of Precipitation, MM = Missing Value Source: NWS Daily Summary

Daily Weather History Graph

Daily Weather History Graph

Search for Another Location

Airport:

Trip Planner

Search our weather history database for the weather conditions in past years. The results will help you decide how hot, cold, wet, or windy it might be!

Date:

Astronomy

Oct. 06, 2012 Rise Set
Actual Time 7:02 AM CDT 6:38 PM CDT
Civil Twilight 6:36 AM CDT 7:03 PM CDT
Nautical Twilight 6:06 AM CDT 7:33 PM CDT
Astronomical Twilight 5:37 AM CDT 8:03 PM CDT
Moon 11:02 PM CDT (10/6) 12:47 PM CDT (10/6)
Length of Visible Light 12h 27m
Length of Day
11h 36m
Waning Gibbous, 65% of the Moon is Illuminated
Oct 6
Waning Gibbous
Oct 8
Last Quarter
Oct 15
New
Oct 21
First Quarter
Oct 29
Full

Hourly Weather History & Observations

Time (CDT) Temp. Windchill Dew Point Humidity Pressure Visibility Wind Dir Wind Speed Gust Speed Precip Events Conditions
12:53 AM 46.0 °F 43.9 °F 44.1 °F 93% 30.19 in 10.0 mi North 4.6 mph - N/A   Overcast
1:53 AM 46.0 °F 41.9 °F 41.0 °F 83% 30.19 in 10.0 mi North 8.1 mph - N/A   Overcast
2:53 AM 45.0 °F 41.2 °F 41.0 °F 86% 30.20 in 10.0 mi North 6.9 mph - N/A   Partly Cloudy
3:53 AM 45.0 °F 42.6 °F 39.9 °F 82% 30.20 in 10.0 mi North 4.6 mph - N/A   Clear
4:53 AM 44.6 °F 40.2 °F 37.4 °F 76% 30.21 in 10.0 mi NNE 8.1 mph - N/A   Clear
5:53 AM 43.0 °F 38.8 °F 37.0 °F 80% 30.23 in 10.0 mi North 6.9 mph - N/A   Clear
6:53 AM 42.1 °F 37.7 °F 37.0 °F 82% 30.24 in 10.0 mi North 6.9 mph - N/A   Clear
7:53 AM 44.1 °F 40.1 °F 37.0 °F 76% 30.25 in 10.0 mi NNE 6.9 mph - N/A   Mostly Cloudy
8:53 AM 46.4 °F 42.4 °F 35.6 °F 66% 30.26 in 10.0 mi North 8.1 mph - N/A   Overcast
9:53 AM 50.0 °F - 35.1 °F 57% 30.24 in 10.0 mi ENE 11.5 mph 20.7 mph N/A   Clear
10:53 AM 53.1 °F - 36.0 °F 52% 30.21 in 10.0 mi NE 12.7 mph 20.7 mph N/A   Clear
11:53 AM 54.0 °F - 34.0 °F 47% 30.23 in 10.0 mi NE 10.4 mph 19.6 mph N/A   Clear
12:53 PM 55.0 °F - 33.1 °F 43% 30.23 in 10.0 mi NNE 9.2 mph - N/A   Clear
1:53 PM 55.9 °F - 33.1 °F 42% 30.20 in 10.0 mi NNE 5.8 mph - N/A   Mostly Cloudy
2:53 PM 54.0 °F - 36.0 °F 51% 30.18 in 10.0 mi North 5.8 mph - 0.00 in Rain Light Rain
3:53 PM 53.1 °F - 37.9 °F 57% 30.18 in 10.0 mi North 8.1 mph - 0.01 in Rain Light Rain
4:53 PM 52.0 °F - 37.9 °F 59% 30.18 in 10.0 mi North 6.9 mph - 0.00 in Rain Light Rain
5:53 PM 50.0 °F - 41.0 °F 71% 30.21 in 8.0 mi NW 3.5 mph - 0.01 in Rain Light Rain
6:53 PM 48.9 °F - 44.1 °F 83% 30.20 in 9.0 mi Calm Calm - 0.04 in Rain Light Rain
7:53 PM 48.9 °F - 44.1 °F 83% 30.22 in 10.0 mi Calm Calm - 0.00 in   Overcast
8:53 PM 48.9 °F - 44.1 °F 83% 30.20 in 10.0 mi Calm Calm - N/A   Mostly Cloudy
9:53 PM 48.2 °F - 42.8 °F 82% 30.22 in 10.0 mi NW 4.6 mph - N/A   Partly Cloudy
10:53 PM 48.0 °F - 41.0 °F 77% 30.23 in 10.0 mi North 4.6 mph - N/A   Overcast
11:53 PM 48.0 °F - 39.0 °F 71% 30.23 in 10.0 mi North 4.6 mph - N/A   Overcast